Location: Cerezo de Arriba
(41.2389°N, 3.5585°W)
Time: 03:53:28
(UTC+00:00)

CZ-4 R/B - Pass Details

Date: 19 May 2025
Orbit: 499 x 550 km, 97.6° (Epoch: 23 June)

Event Time Altitude Azimuth Distance (km) Brightness Sun altitude
Rises 20:22:38 0° 184° (S) 2,710 4.5 -9.2°
Reaches altitude 10° 20:24:51 10° 193° (SSW) 1,822 3.7 -9.5°
Maximum altitude 20:28:33 38° 262° (W) 853 2.7 -10.1°
Drops below altitude 10° 20:32:15 10° 331° (NNW) 1,827 5.2 -10.6°
Sets 20:34:30 0° 340° (NNW) 2,720 6.0 -10.9°
